HK6RM-17 Weather Reports


time (UTC)temp
F
wind
direction
speed
knots
gust
knots
rain 1hr
in
rain 24hr
in
rain mn
in
humidity
%
barometer
mb
20260504160339 63 300 3.5 0.0 0.00 0.00 0.00 89 1016.0
20260504150333 64 300 3.5 0.0 0.00 0.00 0.00 88 1016.0
20260504141328 62 120 2.6 0.0 0.00 0.00 0.00 10 1016.0
20260504140328 63 120 2.6 0.0 0.00 0.00 0.00 10 1016.0
20260504130321 59 0 0.9 0.0 0.00 0.00 0.00 10 1017.0
20260504120315 59 0 1.7 0.0 0.00 0.00 0.00 10 1017.0
20260504110308 51 110 3.5 2.6 0.00 0.00 0.00 83 1017.0
20260504100255 51 110 3.5 2.6 0.00 0.00 0.00 82 1017.0
20260504081246 52 112 3.5 2.6 0.00 0.00 0.00 82 1017.0
20260504080245 52 112 3.5 2.6 0.00 0.00 0.00 82 1017.0
20260504070236 52 108 3.5 2.6 0.00 0.00 0.00 82 1017.0
20260504060230 53 111 2.6 1.7 0.11 0.00 0.00 82 1018.0
20260504050223 53 111 2.6 0.9 0.00 0.00 0.00 82 1018.0
20260504045222 53 111 2.6 0.9 0.00 0.00 0.00 82 1018.0
20260504044222 52 108 3.5 2.6 0.00 0.00 0.00 82 1018.0
20260504043220 53 108 3.5 2.6 0.00 0.00 0.00 82 1018.0
20260504042220 53 108 3.5 2.6 0.00 0.00 0.00 82 1018.0
20260504041219 52 110 3.5 2.6 0.00 0.00 0.00 82 1018.0
20260504040218 53 110 3.5 2.6 0.01 0.00 0.00 82 1018.0
20260504035217 53 110 3.5 2.6 0.01 0.00 0.00 82 1018.0
20260504034216 52 110 3.5 2.6 0.00 0.00 0.00 84 1018.0
20260504033216 52 107 4.3 2.6 0.00 0.00 0.00 82 1018.0
20260504032216 52 107 4.3 2.6 0.00 0.00 0.00 82 1018.0
20260504031214 52 107 4.3 2.6 0.00 0.00 0.00 82 1018.0
20260504030213 52 107 4.3 2.6 0.00 0.00 0.00 82 1018.0
20260504025212 52 107 4.3 2.6 0.00 0.00 0.00 82 1018.0
20260504024211 52 107 4.3 2.6 0.00 0.00 0.00 83 1018.0
20260504023210 53 107 4.3 2.6 0.00 0.00 0.00 83 1018.0
20260504022209 53 107 4.3 2.6 0.00 0.00 0.00 83 1017.0
20260504021208 54 107 4.3 2.6 0.00 0.00 0.00 83 1017.0
20260504020203 55 107 4.3 2.6 0.00 0.00 0.00 83 1017.0
20260504015201 55 107 4.3 2.6 0.00 0.00 0.00 83 1018.0
20260504014157 56 107 4.3 2.6 0.00 0.00 0.00 83 1017.0
20260504013149 58 107 4.3 2.6 0.00 0.00 0.00 84 1017.0
20260504012148 58 107 4.3 2.6 0.00 0.00 0.00 84 1016.0
20260504011147 53 89 0.9 0.9 0.00 0.00 0.00 79 1016.0
20260504010145 53 89 0.9 0.9 0.00 0.00 0.00 80 1016.0
20260504005144 53 89 0.9 0.9 0.00 0.00 0.00 79 1016.0
20260504004143 54 89 0.9 0.9 0.00 0.00 0.00 79 1016.0
20260504003141 55 89 0.9 0.9 0.00 0.00 0.00 78 1016.0
20260504002137 55 89 0.9 0.9 0.00 0.00 0.00 78 1015.0
20260504001135 55 89 0.9 0.9 0.01 0.00 0.00 78 1015.0
20260504000135 56 89 0.9 0.9 0.00 0.00 0.00 78 1015.0
20260503235134 56 89 0.9 0.9 0.00 0.00 0.00 78 1015.0
20260503234133 57 89 0.9 0.9 0.00 0.00 0.00 78 1014.0
20260503233133 57 89 0.9 0.9 0.00 0.00 0.00 77 1014.0
20260503232132 57 89 0.9 0.9 0.00 0.00 0.00 78 1013.0
20260503231131 58 89 0.9 0.9 0.00 0.00 0.00 78 1013.0
20260503230131 59 89 0.9 0.9 0.00 0.00 0.00 78 1013.0
20260503225130 59 89 0.9 0.9 0.00 0.00 0.00 78 1013.0
20260503224130 59 89 0.9 0.9 0.00 0.00 0.00 78 1013.0
20260503223129 60 89 1.7 1.7 0.02 0.00 0.00 77 1013.0
20260503222128 60 47 0.0 2.6 0.00 0.00 0.00 77 1012.0
20260503221124 58 290 7.0 0.0 0.00 0.00 0.00 79 1012.0
20260503220121 59 290 7.0 0.0 0.00 0.00 0.00 78 1012.0
20260503215121 59 290 7.0 0.0 0.00 0.00 0.00 78 1012.0
20260503214120 60 290 7.0 0.0 0.00 0.00 0.00 78 1012.0
20260503213119 61 290 7.0 0.0 0.00 0.00 0.00 78 1012.0
20260503212119 61 290 7.0 0.0 0.00 0.00 0.00 78 1012.0
20260503211117 62 290 7.0 0.0 0.00 0.00 0.00 78 1012.0
20260503210117 62 290 7.0 0.0 0.00 0.00 0.00 78 1012.0
20260503205116 63 290 7.0 0.0 0.00 0.00 0.00 78 1012.0
20260503204116 64 290 7.0 0.0 0.00 0.00 0.00 78 1012.0
20260503203115 65 290 7.0 0.0 0.00 0.00 0.00 80 1012.0
20260503202114 65 290 7.0 0.0 0.00 0.00 0.00 78 1012.0
20260503201114 65 290 7.0 0.0 0.00 0.00 0.00 77 1012.0
20260503200113 65 290 7.0 0.0 0.00 0.00 0.00 73 1012.0
20260503195113 66 290 7.0 0.0 0.00 0.00 0.00 73 1012.0
20260503194112 66 290 7.0 0.0 0.00 0.00 0.00 73 1012.0
20260503193110 67 290 7.0 0.0 0.00 0.00 0.00 73 1012.0
20260503192108 67 290 7.0 0.0 0.00 0.00 0.00 73 1012.0
20260503191108 67 290 7.0 0.0 0.00 0.00 0.00 73 1012.0
20260503190107 67 300 7.0 0.0 0.00 0.00 0.00 73 1012.0
20260503185106 67 300 7.0 0.0 0.00 0.00 0.00 74 1012.0
20260503184106 67 300 7.0 0.0 0.00 0.00 0.00 74 1013.0
20260503183104 68 300 7.0 0.0 0.00 0.00 0.00 74 1013.0
20260503182058 68 300 7.0 0.0 0.00 0.00 0.00 74 1014.0
20260503181057 68 300 7.0 0.0 0.00 0.00 0.00 74 1014.0
20260503180055 68 300 7.0 0.0 0.00 0.00 0.00 76 1014.0
20260503175055 68 300 7.0 0.0 0.00 0.00 0.00 77 1014.0
20260503174053 66 300 7.0 0.0 0.00 0.00 0.00 79 1014.0
20260503173052 66 300 7.0 0.0 0.00 0.00 0.00 79 1014.0
20260503172049 67 300 7.0 0.0 0.00 0.00 0.00 79 1015.0
20260503171048 68 300 7.0 0.0 0.00 0.00 0.00 79 1015.0